Flag for Switzerland Weather past 2 weeks in Montreux, Vaud, Switzerland

Now
50 °F

Cool.


Feels Like: 49 °F
Forecast: 37 / 47 °F
Wind: 5 mph from Northwest

Location: Aigle

Current Time: Mar 30, 2015 at 10:31:48 PM

Latest Report: Mar 30, 2015 at 9:00 PM


Visibility: N/A

Pressure: 30.06 "Hg

Humidity: 89%

Dew point: 47 °F

Location of MontreuxLocation

Historic Weather in Montreux — Graph

°F

Montreux temperature yesterday

Maximum temperature yesterday: 51 °F (at 1:00 PM)
Minimum temperature yesterday: 44 °F (at 6:00 AM)
Average temperature yesterday: 48 °F

Past Weeks' High & Low Weather Summary

 TemperatureHumidityPressure
High60 °F (Mar 19, 4:00 PM)97% (Mar 30, 2:00 AM)30.32 "Hg (Mar 30, 2:00 AM)
Low33 °F (Mar 28, 6:00 AM)41% (Mar 15, 9:00 PM)29.59 "Hg (Mar 25, 1:00 PM)
Average46 °F76%30.04 "Hg
* Reported Mar 15 8:00 PM — Mar 30 9:00 PM, Montreux, Weather by CustomWeather, © 2015

Note: Actual official high and low records may vary slightly from our data, if they occured in-between our weather recording intervals... More about our weather records

Advertising

Montreux weather history for previous 24 hours

 ConditionsComfort  
Time TempWeatherWind HumidityBarometerVisibility
9:00 PM
Mon, Mar 30
50 °FCool.5 mph89%30.06 "HgN/A
8:00 PM52 °FLight rain. Overcast.8 mph78%30.04 "Hg4 mi
7:00 PM56 °FCool.7 mph62%29.99 "HgN/A
6:00 PM56 °FRefreshingly cool.14 mph58%29.96 "HgN/A
5:00 PM57 °FOvercast.8 mph57%29.96 "Hg6 mi
4:00 PM57 °FRefreshingly cool.15 mph60%29.92 "HgN/A
3:00 PM57 °FCool.12 mph60%29.91 "HgN/A
2:00 PM55 °FLight rain. Overcast.6 mph78%29.91 "Hg11 mi
1:00 PM53 °FCool.2 mph80%29.93 "HgN/A
12:00 PM51 °FCool.2 mph87%29.93 "HgN/A
11:00 AM49 °FLight rain. Overcast.2 mph94%29.93 "Hg12 mi
10:00 AM48 °FCool.3 mph87%29.91 "HgN/A
9:00 AM47 °FCool.6 mph85%29.88 "HgN/A
8:00 AM47 °FLight rain. Overcast.8 mph87%29.88 "Hg14 mi
7:00 AM46 °FCool.7 mph94%29.89 "HgN/A
6:00 AM46 °FCool.7 mph94%29.88 "HgN/A
5:00 AM47 °FRain. Overcast.6 mph94%29.86 "Hg6 mi
4:00 AM47 °FCool.6 mph90%29.89 "HgN/A
3:00 AM47 °FCool.6 mph96%29.91 "HgN/A
2:00 AM47 °FCool.3 mph97%29.93 "HgN/A
1:00 AM48 °FCool.5 mph96%29.94 "HgN/A
12:00 AM48 °FCool.3 mph96%29.96 "HgN/A
10:00 PM
Sun, Mar 29
49 °FCool.7 mph95%29.96 "HgN/A
Weather by CustomWeather, © 2015

See weather overviewHow to use our weather pages